Location: Alphen
(52.1351°N, 4.6549°E)
Time: 02:01:19
(UTC+00:00)

Iridium 4 Rocket - Pass Details

Date: 27 January 2021
Orbit: 583 x 906 km, 86.9° (Epoch: 26 February)

Event Time Altitude Azimuth Distance (km) Brightness Sun altitude
Rises 06:33:55 0° 178° (S) 3,470 7.2 -8.5°
Reaches altitude 10° 06:36:19 10° 177° (S) 2,557 6.5 -8.2°
Maximum altitude 06:42:11 81° 91° (E) 924 4.0 -7.3°
Drops below altitude 10° 06:48:07 10° 5° (N) 2,586 6.1 -6.5°
Sets 06:50:33 0° 5° (N) 3,512 6.7 -6.1°
